Regional Weather Roundup
Issued by NWS Boston, MA

Current Version | Previous Version | Text Only | Print | Product List | Glossary Off
Versions: 1 2 3 4 5 6 7 8 9 10 11 12 13 14 15 16 17 18 19 20 21 22 23 24 25 26 27 28 29 30 31 32 33 34 35 36 37 38 39 40 41 42 43 44 45 46 47 48 49 50
000 ASUS41 KBOX 051310 RWRBOX REGIONAL WEATHER ROUNDUP NATIONAL WEATHER SERVICE TAUNTON MA 900 AM EDT SUN JUL 05 2015 NOTE: "FAIR" INDICATES FEW OR NO CLOUDS BELOW 12,000 FEET WITH NO SIGNIFICANT WEATHER AND/OR OBSTRUCTIONS TO VISIBILITY. THE FOLLOWING OBSERVATION LOCATIONS DO NOT REPORT PRESENT WEATHER...PROVINCETOWN... SMITHFIELD...BLOCK ISLAND...KEENE...AND OXFORD. MAZALL-051400- EASTERN MASSACHUSETTS CITY SKY/WX TMP DP RH WIND PRES REMARKS BOSTON SUNNY 71 60 68 W7 30.07R BEVERLY SUNNY 70 60 70 NW9 30.06R LAWRENCE SUNNY 69 61 75 VRB3 30.09R BEDFORD SUNNY 69 61 75 W6 30.07R BLUE HILL N/A 68 60 75 NW9 30.08R NORWOOD SUNNY 71 61 70 W6 30.07R MARSHFIELD SUNNY 72 61 68 W6 30.08R PLYMOUTH SUNNY 70 61 73 W6 30.08R TAUNTON SUNNY 72 60 66 VRB7 30.07R NEW BEDFORD SUNNY 73 60 63 W7 30.07R $$ MAZALL-051400- CAPE COD AND THE ISLANDS CITY SKY/WX TMP DP RH WIND PRES REMARKS FALMOUTH SUNNY 72 61 68 W8 30.08R HYANNIS SUNNY 72 61 68 VRB6 30.06R CHATHAM SUNNY 71 60 68 W7 30.08R PROVINCETOWN SUNNY 68 10 10 W9 30.07R NANTUCKET SUNNY 70 62 76 W13 30.08R MARTHAS VNYRD SUNNY 71 61 70 W8 30.08S $$ MAZALL-051400- CENTRAL AND WESTERN MASSACHUSETTS CITY SKY/WX TMP DP RH WIND PRES REMARKS WORCESTER SUNNY 68 58 70 NW9 30.11R FITCHBURG SUNNY 70 59 68 NW6 30.09R ORANGE PTSUNNY 60 58 92 CALM 30.11R SPRINGFIELD SUNNY 65 61 89 SW1 30.09R WESTFIELD SUNNY 68 61 78 CALM 30.10R HAZE NORTH ADAMS CLOUDY 62 59 90 CALM 30.13R PITTSFIELD CLOUDY 66 60 81 NW7 30.13R $$ RIZALL-051400- RHODE ISLAND CITY SKY/WX TMP DP RH WIND PRES REMARKS PROVIDENCE SUNNY 72 60 66 W7 30.09R NEWPORT SUNNY 70 61 73 W6 30.09R BLOCK ISLAND SUNNY 70 59 68 W10 30.11R SMITHFIELD SUNNY 70 57 64 W8 30.09R WESTERLY SUNNY 72 60 66 W5 30.10R $$ CTZALL-051400- CONNECTICUT CITY SKY/WX TMP DP RH WIND PRES REMARKS BRADLEY INTL SUNNY 70 59 68 CALM 30.09R HARTFORD SUNNY 70 60 70 S5 30.10R BRIDGEPORT MOSUNNY 73 62 68 VRB6 30.11R DANBURY SUNNY 69 59 70 NW6 30.13R GROTON SUNNY 72 61 68 W6 30.10R NEW HAVEN SUNNY 70 61 73 W5 30.11R CHESTER NOT AVBL MERIDEN SUNNY 70 60 70 CALM 30.11R WILLIMANTIC SUNNY 69 61 75 VRB3 30.10R OXFORD SUNNY 66 57 72 CALM 30.14R $$ MEZ002-015-021-024-NHZ003-005-008-011-012-014-VTZ005-008-051400- NORTHERN NEW ENGLAND CITY SKY/WX TMP DP RH WIND PRES REMARKS PORTLAND ME SUNNY 71 62 73 NW5 30.04R BANGOR ME PTSUNNY 68 60 75 W8 30.01R CONCORD NH SUNNY 66 59 78 CALM 30.07R MANCHESTER NH SUNNY 68 60 75 NW6 30.06R NASHUA NH SUNNY 68 62 80 N3 30.08R PORTSMOUTH NH SUNNY 68 60 75 W7 30.05R JAFFREY NH SUNNY 67 60 78 CALM 30.11R KEENE NH CLOUDY 61 55 82 SW3 30.11R BURLINGTON VT MOSUNNY 68 61 78 SW8 30.08R MT. WASHINGTON FOG 45 45 100 NW37G44 N/A VSB 0 $$ NYZ052-076-051400- EASTERN NEW YORK CITY SKY/WX TMP DP RH WIND PRES REMARKS ALBANY MOSUNNY 68 61 78 VRB3 30.12R NEW YORK CITY PTSUNNY 73 60 63 N3 30.12R $$ ANZALL-051400- MARINE OBSERVATIONS STATION/POSITION TIME TEMP WIND PRES VSBY WAVE AIR SEA DIR/SP/G HT/PER (UTC) (F) (DEG/KT/KT) (MB) (MI) (FT/S) BOSTON BUOY 1250 63 61 250/ 8/ 10 1018.3R 1/ 7 BUZZARDS BAY 1200 260/ 13/ 14 1019.2R NANTUCKET SOUND 1250 67 63 230/ 10/ 10 1018.4R 1/10 MASS BAY-STELLWA 1204 63 62 250/ 8/ 10 1016.5R 1 7/8 2/ 8 ISLE OF SHOALS 1300 65 290/ 14/ 14 1017.0R S OF BLOCK IS 1208 65 N/A 5/ 9 $$ ......................KEY......................... SKY/WX - SKY CONDITION/PRESENT WEATHER TMP - TEMPERATURE IN FAHRENHEIT DWPT - DEWPOINT IN FAHRENHEIT RH - RELATIVE HUMIDITY IN PERCENT WIND - DIRECTION AND SPEED IN MPH PRES - MEAN SEA LEVEL PRESSURE IN INCHES OF HG WCI - WIND CHILL INDEX VSB - VISIBILITY IN MILES HX - HEAT INDEX TC - TEMPERATURE IN CELSIUS VRB - VARIABLE WIND DIRECTION N/A - NOT AVAILABLE

USA.gov is the U.S. government's official web portal to all federal, state and local government web resources and services.